{"data":{"norad_id":54648,"epoch":"2026-09-20T03:55:58.331712Z","epoch_age_seconds":51036,"freshness":"FRESH","line1":"1 54648U 22166G   26263.16386958 -.00000004  00000+0 -41754-4 0  9999","line2":"2 54648  87.9280 225.0752 0002292  88.8104 271.3292 13.21824701184097","mean_motion":13.21824701,"eccentricity":0.0002292,"inclination_deg":87.928,"raan_deg":225.0752,"arg_perigee_deg":88.8104,"mean_anomaly_deg":271.3292,"bstar":-4.1754e-5,"rev_number":18409,"period_min":108.94031552827,"perigee_km":1176.026507439,"apogee_km":1179.4901298531,"semimajor_km":7555.8953186461,"source":"CELESTRAK","updated_at":"2026-09-20T09:00:44.724167Z"}}